Temp
61 61 61 61 60 60 60 60 60 60 61 61 61 61 61 61 61 79 80 76 77 71 72 88 89 86 88 84 87 87 75 75 78 80 81 88 84 87 91 84 88 90 90 94 98
61 61 61 61 61 60 60 60 60 60 60 61 61 61 61 61 79 83 74 73 73 72 87 84 82 84 84 81 84 79 76 77 82 81 79 83 83 84 82 82 84 86 92 95 97
60 60 60 60 60 60 60 60 60 60 61 61 61 61 61 66 80 81 73 73 74 74 88 87 87 84 79 82 80 80 74 80 79 81 81 79 80 84 80 77 83 82 87 92 94
60 60 60 60 60 60 60 60 60 60 61 60 60 61 62 77 70 86 74 73 73 83 90 86 84 79 77 75 79 72 79 79 79 81 79 77 81 79 81 81 87 87 88 89 88
59 59 59 59 59 59 59 59 60 60 60 60 61 61 72 79 81 86 74 75 84 88 85 82 79 77 74 76 78 75 78 78 80 80 80 81 77 78 79 85 88 88 87 86 86
59 59 59 59 59 59 59 59 59 59 59 60 61 61 77 75 92 92 89 89 88 88 84 84 79 80 75 76 75 79 77 77 79 79 81 77 77 79 81 86 85 85 84 86 86
59 59 59 59 59 59 59 59 59 59 60 61 62 75 81 80 93 94 92 89 91 87 82 86 84 78 79 74 81 77 70 76 79 79 77 79 71 74 84 86 83 83 84 85 85
59 58 58 59 59 59 59 59 59 59 61 62 63 79 79 93 96 92 93 90 92 90 86 87 86 80 77 80 76 72 75 68 80 80 81 75 66 79 85 83 81 83 83 84 85
59 58 58 59 59 59 59 59 60 61 62 63 75 82 79 83 87 91 91 84 87 89 87 85 83 76 77 70 70 76 66 69 72 81 79 76 69 79 84 82 79 81 82 83 84
59 58 58 58 59 59 58 59 62 63 69 83 86 78 84 79 85 87 92 88 82 82 80 79 78 73 75 73 61 63 64 67 66 75 77 74 73 79 83 82 81 83 84 83 83
59 58 58 58 58 58 61 75 79 77 83 79 79 77 81 86 89 84 88 84 82 78 70 76 68 68 69 70 69 67 65 64 71 77 73 72 72 76 81 81 80 82 82 82 83
58 58 58 57 58 59 70 84 82 84 73 83 83 82 85 85 77 80 88 76 74 68 74 72 66 73 71 70 68 67 65 66 71 75 71 70 70 77 80 79 80 79 80 81 82
57 57 57 57 59 65 86 84 92 89 74 79 82 80 82 84 74 75 81 76 72 68 71 65 71 71 68 67 66 67 64 64 63 68 72 73 69 71 76 79 80 80 80 80 80
57 57 57 57 64 91 87 89 92 87 67 70 75 80 83 83 72 82 82 75 72 67 69 69 74 69 67 64 67 60 70 66 63 63 58 72 54 67 73 74 76 78 80 80 79
57 57 57 53 82 86 87 92 92 83 52 70 74 88 85 74 75 75 83 75 67 67 67 67 68 66 62 65 67 63 69 66 66 65 63 63 57 65 72 65 66 71 72 76 78
57 57 56 73 86 91 92 90 84 63 52 66 74 74 74 74 73 77 74 79 76 69 72 69 77 69 67 68 71 72 66 67 68 66 49 58 59 59 57 59 63 68 70 73 77
56 56 59 83 83 93 92 82 64 57 72 64 66 73 71 68 70 71 68 68 63 56 60 67 69 70 68 66 72 68 61 45 47 48 51 63 57 53 62 63 62 61 64 71 75
54 54 67 88 93 89 84 72 56 65 65 70 69 71 65 68 68 69 68 65 68 64 60 56 55 65 71 66 62 63 58 38 30 39 47 59 48 56 64 67 65 66 62 69 73
53 85 87 90 89 87 76 63 64 64 66 64 68 64 65 68 66 68 66 62 65 65 53 54 56 68 70 71 68 61 53 61 38 45 39 57 60 66 68 65 63 63 62 66 69
69 81 86 89 88 81 71 61 66 68 67 67 59 63 58 63 62 64 63 64 61 65 68 59 45 64 68 72 69 64 66 49 48 31 35 52 52 50 55 53 58 56 57 64 66
70 76 85 91 87 76 66 66 67 70 68 63 62 60 63 61 62 62 61 65 64 65 68 64 54 56 65 63 61 56 57 57 50 44 33 34 47 58 55 54 48 50 56 59 62
75 72 86 88 72 77 70 66 56 68 69 65 66 65 61 61 59 60 59 63 68 67 59 64 56 49 57 70 70 66 58 58 40 40 40 39 41 64 59 53 50 50 52 56 61
70 76 86 82 67 71 67 66 66 64 65 63 62 65 66 61 55 61 62 68 70 65 60 62 55 44 55 62 63 59 62 58 56 52 44 34 43 64 59 52 52 49 49 51 57
71 69 77 80 74 65 62 63 61 67 65 65 64 66 64 61 64 59 62 65 69 68 56 60 55 47 39 49 56 52 57 59 52 44 42 43 47 56 54 49 51 48 48 50 54
75 66 65 66 68 64 64 62 61 59 66 66 63 63 60 55 59 61 64 65 68 61 63 56 46 53 55 57 61 56 58 59 51 52 39 44 49 53 50 49 48 48 48 50 50
66 65 71 68 65 63 56 62 59 60 62 62 59 62 62 57 59 56 60 61 58 65 63 64 52 53 52 58 61 58 61 56 55 55 46 50 53 58 57 57 50 47 47 47 48
74 74 67 59 65 63 66 61 60 61 65 66 63 61 59 63 64 65 66 65 64 60 58 58 55 49 47 60 59 50 56 55 55 57 52 41 53 58 58 53 48 46 46 47 48
MSLP
1017.67 1017.42 1017.19 1017.01 1016.78 1016.51 1016.31 1016.10 1015.80 1015.67 1015.46 1015.11 1014.71 1014.26 1013.67 1013.15 1012.33 1011.59 1010.81 1011.85 1011.40 1011.00 1010.97 1008.88 1007.70 1007.54 1006.85 1005.91 1005.59 1004.88 1003.12 1000.80 999.85 999.44 999.49 1000.25 1000.76 1001.71 1001.87 1002.26 1002.00 1001.77 1001.17 1000.82 1000.86
1017.78 1017.48 1017.22 1017.01 1016.78 1016.54 1016.33 1016.14 1015.85 1015.52 1015.39 1015.09 1014.67 1014.23 1013.72 1013.30 1011.54 1010.63 1011.94 1011.82 1011.63 1010.94 1009.07 1008.26 1007.41 1006.97 1005.72 1005.53 1005.24 1004.53 1002.38 1001.09 1001.37 1001.72 1001.74 1001.79 1001.84 1002.00 1002.23 1002.05 1001.74 1001.64 1001.48 1001.33 1001.32
1017.88 1017.59 1017.31 1017.06 1016.81 1016.55 1016.34 1016.19 1015.95 1015.62 1015.27 1015.04 1014.75 1014.37 1013.87 1013.30 1010.82 1010.45 1011.62 1011.72 1011.58 1011.05 1009.21 1008.39 1007.38 1006.73 1005.45 1005.49 1004.93 1003.97 1003.02 1002.52 1002.85 1003.03 1003.15 1002.85 1002.66 1002.61 1002.15 1001.73 1001.70 1001.53 1001.37 1001.13 1000.87
1017.91 1017.65 1017.40 1017.09 1016.81 1016.55 1016.31 1016.09 1015.87 1015.62 1015.35 1015.03 1014.69 1014.42 1013.95 1012.67 1009.96 1010.23 1011.37 1011.55 1011.50 1010.50 1008.50 1007.70 1006.73 1006.05 1005.40 1004.88 1005.21 1004.78 1003.80 1003.60 1003.62 1003.62 1003.53 1003.15 1002.84 1002.44 1002.18 1001.81 1001.85 1001.91 1001.75 1001.48 1001.33
1017.91 1017.62 1017.37 1017.07 1016.79 1016.53 1016.23 1015.97 1015.77 1015.51 1015.25 1014.97 1014.62 1014.34 1013.49 1010.86 1009.53 1010.59 1011.33 1011.35 1010.73 1009.43 1008.31 1007.83 1007.00 1006.72 1005.53 1005.34 1005.10 1004.39 1003.84 1003.91 1003.79 1003.51 1003.20 1002.97 1002.59 1002.22 1001.57 1001.59 1001.55 1001.60 1001.57 1001.46 1001.31
1017.93 1017.61 1017.29 1017.01 1016.67 1016.32 1016.09 1015.83 1015.59 1015.37 1015.12 1014.76 1014.40 1014.20 1012.30 1009.35 1009.46 1009.60 1009.96 1009.79 1009.39 1008.71 1008.28 1007.89 1007.68 1007.57 1006.83 1005.75 1005.15 1004.28 1004.32 1003.87 1003.33 1002.87 1002.52 1002.20 1001.86 1001.73 1000.88 1000.94 1000.79 1000.82 1001.11 1001.16 1001.05
1017.93 1017.57 1017.19 1016.83 1016.55 1016.19 1015.84 1015.55 1015.32 1015.14 1014.91 1014.57 1014.17 1013.25 1010.70 1009.62 1009.30 1009.13 1009.16 1009.03 1008.68 1008.67 1008.33 1007.90 1008.03 1007.88 1006.67 1005.75 1004.85 1004.83 1004.17 1002.93 1001.76 1001.85 1002.03 1002.09 1001.46 1000.48 999.74 999.69 999.77 1000.06 1000.16 1000.44 1000.57
1017.83 1017.43 1017.01 1016.71 1016.28 1015.96 1015.62 1015.37 1014.97 1014.76 1014.60 1014.20 1013.98 1012.67 1009.29 1009.07 1009.06 1008.53 1008.51 1008.31 1008.00 1008.45 1008.42 1008.41 1008.18 1007.67 1006.92 1005.89 1005.03 1003.93 1002.76 1001.41 1000.00 1000.55 1000.74 1001.74 999.90 999.55 999.25 999.09 999.05 999.22 999.59 999.58 999.78
1017.78 1017.27 1016.85 1016.44 1016.16 1015.69 1015.29 1014.95 1014.68 1014.39 1014.19 1013.79 1013.18 1011.21 1008.32 1009.18 1008.69 1008.72 1008.45 1008.35 1008.07 1007.66 1007.73 1008.27 1008.06 1007.04 1006.15 1005.19 1003.13 1000.89 1000.95 1000.33 1000.04 1000.18 1000.04 1000.23 999.04 998.91 998.93 998.41 998.23 998.70 998.81 998.97 999.07
1017.91 1017.26 1016.74 1016.22 1015.77 1015.54 1015.14 1014.71 1014.18 1014.08 1013.42 1012.24 1011.23 1010.35 1008.67 1008.91 1009.08 1008.83 1008.22 1008.18 1007.79 1007.47 1006.87 1006.77 1006.35 1005.58 1004.50 1003.26 1002.36 1002.21 1001.73 1001.21 1000.42 1000.03 999.69 999.10 997.97 997.51 997.47 997.33 997.00 997.07 997.29 997.50 997.87
1018.01 1017.31 1016.63 1016.08 1015.58 1015.19 1014.83 1014.08 1013.58 1012.68 1010.97 1009.99 1009.60 1009.37 1008.85 1009.08 1008.91 1008.40 1008.21 1007.62 1007.15 1006.79 1005.87 1005.41 1005.59 1003.68 1003.99 1004.30 1004.11 1003.61 1002.53 1001.17 1000.34 999.65 999.45 998.49 997.72 997.07 996.45 996.35 996.05 996.08 996.35 996.64 996.81
1018.10 1017.39 1016.61 1015.93 1015.52 1015.15 1014.62 1011.92 1011.82 1011.47 1010.06 1009.35 1009.25 1008.97 1008.77 1008.91 1008.17 1008.21 1008.33 1007.45 1006.95 1006.02 1005.39 1004.85 1004.03 1003.77 1004.89 1004.65 1004.07 1003.25 1002.06 1000.77 1000.07 999.90 999.83 998.41 996.82 996.04 995.77 995.74 995.99 996.09 996.32 996.41 996.69
1018.07 1017.35 1016.56 1015.95 1015.46 1015.01 1012.56 1011.82 1011.43 1011.14 1009.99 1008.27 1008.57 1008.55 1008.33 1008.24 1008.03 1008.24 1008.36 1007.93 1006.76 1005.99 1005.07 1004.80 1003.89 1004.72 1004.80 1004.28 1003.56 1002.80 1002.01 1001.23 1001.09 1000.35 999.07 996.65 995.95 995.77 996.17 996.05 995.76 996.19 996.68 996.83 996.85
1017.99 1017.19 1016.47 1015.92 1015.83 1012.26 1011.29 1011.81 1011.48 1011.55 1009.43 1008.19 1008.08 1007.98 1007.94 1007.87 1007.94 1008.43 1008.43 1008.47 1007.05 1005.99 1005.58 1004.69 1004.13 1004.59 1004.48 1004.24 1003.74 1002.94 1002.37 1002.33 1001.35 1000.05 998.07 997.57 995.88 996.26 995.77 995.64 995.57 996.24 996.20 996.25 996.47
1017.96 1017.03 1016.30 1016.03 1014.02 1011.59 1011.88 1011.53 1011.24 1011.63 1008.99 1008.74 1007.93 1008.30 1007.47 1008.07 1008.09 1007.77 1008.45 1008.17 1007.17 1006.53 1006.39 1004.01 1004.28 1004.55 1004.62 1004.19 1004.53 1003.60 1003.28 1002.53 1001.03 999.76 998.72 998.37 997.18 996.19 996.59 997.19 997.71 997.77 997.63 997.28 997.13
1017.76 1016.93 1016.17 1014.50 1012.91 1011.47 1011.55 1011.81 1011.52 1010.18 1008.01 1008.30 1008.29 1007.61 1007.19 1007.43 1007.90 1007.87 1007.83 1007.51 1007.12 1006.57 1005.60 1005.11 1004.21 1005.16 1004.98 1004.93 1004.00 1003.71 1003.04 1002.19 1000.71 999.49 999.57 998.91 998.04 997.81 999.05 999.85 999.85 999.79 999.37 998.06 996.67
1017.27 1016.38 1016.30 1013.79 1011.85 1011.62 1011.62 1011.11 1009.80 1008.30 1008.23 1008.36 1008.39 1007.91 1007.70 1007.57 1007.43 1007.59 1007.28 1006.64 1007.24 1006.58 1005.18 1004.37 1003.50 1004.84 1005.61 1004.33 1003.23 1003.50 1003.27 1003.27 1001.78 1000.71 999.44 999.21 999.06 999.59 1000.36 1000.94 1001.21 1000.77 999.64 998.17 996.87
1016.93 1015.40 1013.92 1012.64 1011.99 1012.03 1011.53 1010.36 1009.02 1008.23 1008.55 1009.22 1008.86 1008.14 1007.70 1007.98 1007.83 1007.49 1007.07 1006.90 1007.53 1007.92 1006.53 1005.45 1004.23 1004.85 1005.06 1004.89 1004.47 1004.06 1004.86 1006.35 1005.84 1004.19 1002.43 1000.88 999.75 999.17 1000.63 1001.42 1001.74 1001.06 1000.18 998.91 996.64
1016.71 1013.07 1011.93 1011.81 1012.30 1012.14 1011.15 1009.28 1008.20 1009.41 1010.24 1010.00 1008.99 1008.07 1007.44 1007.69 1008.25 1007.47 1007.04 1007.95 1008.61 1008.89 1008.72 1007.25 1005.29 1005.71 1005.16 1004.86 1004.95 1004.34 1005.29 1006.23 1007.33 1006.57 1004.86 1000.58 999.75 999.17 999.99 1001.13 1001.54 1000.59 999.95 998.25 996.34
1016.70 1013.04 1011.21 1011.93 1012.14 1011.82 1010.54 1009.24 1009.58 1010.76 1011.00 1010.59 1009.67 1009.33 1008.79 1008.50 1008.47 1008.05 1007.56 1008.85 1009.50 1009.69 1009.57 1008.77 1007.88 1006.10 1005.07 1004.60 1004.68 1005.03 1006.07 1006.54 1007.56 1007.61 1005.41 1002.04 1001.00 1001.20 1001.78 1002.14 1002.17 1001.25 1000.01 998.81 997.18
1016.32 1012.31 1011.65 1011.60 1011.49 1010.68 1009.44 1009.64 1010.51 1011.23 1011.84 1011.37 1010.63 1010.24 1009.56 1009.36 1009.35 1008.67 1008.35 1008.94 1009.96 1010.01 1009.93 1009.14 1008.84 1007.05 1005.44 1003.68 1003.65 1005.55 1005.65 1006.23 1007.89 1008.17 1007.55 1004.92 1002.60 1002.57 1002.98 1003.62 1003.55 1002.89 1000.89 1000.55 998.75
1015.03 1011.57 1011.69 1011.36 1010.55 1010.02 1009.74 1011.25 1012.55 1011.54 1011.86 1011.84 1011.53 1010.75 1010.46 1010.41 1009.77 1009.33 1009.06 1009.32 1010.17 1010.41 1010.13 1009.74 1009.43 1007.64 1005.53 1003.59 1004.11 1004.54 1005.66 1006.42 1007.65 1007.75 1007.70 1006.31 1003.71 1002.74 1004.01 1004.67 1004.77 1003.87 1002.13 1001.05 999.28
1015.46 1012.73 1011.95 1011.44 1009.97 1010.16 1011.48 1011.70 1012.25 1012.21 1012.15 1012.02 1011.86 1011.47 1011.27 1010.82 1010.32 1009.58 1009.50 1009.80 1010.17 1010.55 1010.68 1010.67 1009.33 1008.29 1004.96 1004.46 1005.32 1005.16 1005.62 1006.62 1006.96 1007.15 1006.99 1006.85 1004.50 1004.10 1004.31 1005.02 1005.04 1004.61 1003.19 1001.46 999.62
1016.02 1012.74 1011.84 1011.79 1012.28 1012.14 1012.07 1011.94 1012.16 1012.62 1012.63 1012.70 1012.36 1012.07 1011.44 1010.85 1010.34 1009.91 1009.47 1009.64 1009.98 1010.12 1011.32 1011.61 1010.37 1009.73 1008.45 1006.94 1006.34 1005.72 1005.58 1005.93 1006.95 1006.77 1006.98 1006.41 1005.45 1004.29 1004.92 1005.47 1005.10 1005.01 1004.13 1002.76 1000.75
1016.14 1014.78 1015.00 1012.45 1012.33 1013.03 1013.08 1012.93 1012.55 1012.61 1012.69 1012.63 1012.03 1012.11 1012.08 1011.42 1010.61 1009.31 1009.73 1009.59 1009.64 1010.15 1010.50 1011.31 1010.52 1009.22 1008.12 1007.11 1005.64 1005.33 1004.76 1005.13 1006.35 1006.90 1007.48 1006.86 1005.60 1005.10 1005.75 1005.88 1005.81 1005.92 1004.94 1003.40 1001.77
1017.07 1016.29 1015.12 1014.16 1014.21 1013.54 1013.53 1012.66 1013.09 1013.15 1013.31 1012.27 1012.52 1012.54 1012.51 1011.93 1011.29 1010.69 1010.54 1010.21 1010.01 1009.77 1009.79 1009.87 1009.49 1009.04 1007.80 1006.31 1004.93 1004.01 1003.93 1005.20 1005.85 1006.36 1007.20 1007.04 1005.51 1005.65 1005.49 1005.82 1006.06 1006.04 1005.49 1004.50 1002.94
1017.81 1017.37 1016.55 1014.51 1013.65 1013.69 1012.75 1013.37 1013.57 1013.77 1013.22 1013.07 1013.23 1013.06 1012.43 1011.97 1012.08 1011.45 1011.02 1010.60 1010.37 1010.19 1010.01 1009.91 1009.25 1008.81 1007.19 1005.35 1004.27 1003.74 1004.29 1005.00 1005.50 1005.71 1006.63 1007.09 1006.24 1005.45 1005.02 1005.67 1006.18 1006.40 1006.08 1005.42 1004.27
Wind_Speed
11 10 9 8 8 8 8 9 10 10 11 12 13 14 16 18 19 8 14 6 8 13 10 12 6 3 8 4 8 8 10 12 13 13 11 7 11 8 10 11 16 19 21 19 20
11 10 9 8 8 8 8 9 10 12 11 11 13 14 16 17 14 13 6 2 7 15 8 10 7 6 6 3 4 10 9 9 13 12 12 13 16 16 17 20 21 19 22 22 19
12 10 9 8 8 8 8 9 9 11 12 12 12 14 15 15 13 11 8 6 7 15 4 6 10 7 5 6 2 2 11 10 7 7 11 15 17 17 19 20 20 19 21 21 19
13 11 10 8 8 9 9 9 9 9 10 12 12 12 13 10 5 9 11 8 8 14 10 9 6 5 4 5 2 10 9 9 10 11 14 16 18 19 20 21 19 19 21 22 21
14 12 10 9 8 8 8 9 10 9 10 11 12 12 10 8 9 12 8 8 12 9 7 9 9 9 9 4 10 16 12 9 13 16 18 18 20 22 24 21 19 19 21 22 22
14 12 11 10 9 7 8 9 9 10 10 11 12 13 10 4 5 1 7 6 12 9 8 8 9 10 12 11 13 14 12 18 18 19 18 18 19 19 22 18 18 18 16 18 20
14 13 12 10 11 10 8 9 9 10 10 10 11 9 14 10 5 7 7 9 9 8 9 9 8 11 15 17 7 12 19 18 19 8 11 13 19 23 20 13 17 17 18 17 18
16 13 12 12 10 11 10 10 10 10 10 12 10 11 6 4 8 4 8 9 8 7 10 11 10 14 16 13 18 21 20 15 5 8 11 7 20 16 15 14 17 18 18 18 17
18 16 13 13 12 11 10 10 10 10 11 12 10 10 1 4 9 11 3 10 13 14 9 6 13 12 14 16 16 18 11 16 19 11 15 13 21 20 19 22 21 19 19 18 19
19 17 15 14 12 11 11 8 4 9 10 10 10 8 4 10 14 10 7 13 11 10 14 15 13 12 16 14 12 18 20 19 20 17 19 21 25 22 20 23 25 23 21 21 22
20 19 16 14 13 10 10 7 7 9 16 7 6 6 8 9 8 5 11 12 5 11 13 3 8 12 13 11 15 16 18 21 20 15 18 20 25 25 24 23 24 23 21 20 20
21 20 18 15 12 8 8 6 7 9 10 8 6 8 6 7 11 6 12 12 11 12 9 12 16 5 9 12 14 16 20 19 18 18 21 24 26 18 18 10 15 14 14 15 15
23 21 19 14 10 6 7 6 8 6 8 9 4 7 9 9 6 11 12 14 13 11 10 10 13 8 10 12 15 14 16 17 23 24 26 21 18 11 16 17 5 7 11 11 13
24 22 19 12 4 8 0 6 7 4 8 8 3 4 7 12 4 4 7 11 12 10 11 11 4 10 11 12 11 16 17 19 23 23 17 19 17 15 11 13 8 10 11 16 20
25 25 19 8 10 8 9 8 5 5 7 6 2 3 8 5 8 3 5 7 12 14 8 11 13 10 10 9 12 17 15 22 26 21 14 15 11 11 17 22 25 25 26 24 24
26 25 21 6 10 5 7 0 6 9 1 3 3 8 10 3 4 7 5 7 3 12 13 14 9 4 9 11 15 11 17 22 20 15 6 6 12 8 13 18 21 25 28 26 27
29 26 14 10 7 9 4 6 9 7 4 5 9 13 10 10 6 10 9 3 10 11 10 19 7 3 4 17 16 7 14 7 6 3 12 23 13 6 12 16 19 23 25 26 26
34 31 6 7 8 5 6 9 11 6 7 9 9 13 5 8 10 10 9 9 9 13 16 10 3 3 15 12 13 12 8 1 4 10 20 22 5 3 7 17 22 25 22 26 27
32 7 6 2 5 4 9 10 7 9 6 10 15 7 5 5 9 14 9 7 8 11 11 11 8 20 10 11 8 7 5 7 3 8 10 6 10 4 17 25 29 31 25 25 28
11 9 5 7 0 6 9 10 5 5 7 6 9 6 13 13 11 14 6 6 7 7 10 7 10 13 14 18 5 9 8 6 1 6 10 12 14 13 24 27 31 32 29 28 30
7 6 7 8 4 9 7 7 2 3 7 7 9 13 11 12 14 15 5 4 2 11 11 15 5 13 21 6 4 7 8 6 3 3 4 8 12 8 23 28 26 25 27 26 27
7 4 7 7 9 1 3 4 2 3 2 4 7 8 6 11 10 14 7 9 12 11 14 8 9 12 21 14 3 4 12 9 6 6 7 7 8 17 23 25 23 21 25 26 25
8 4 4 9 4 2 3 1 2 4 6 4 7 4 10 10 9 7 8 5 11 9 11 13 5 10 14 9 4 16 15 12 14 10 13 3 8 22 21 26 19 21 23 24 23
6 4 3 2 3 7 2 1 3 1 7 4 8 9 10 13 6 7 14 1 6 10 6 5 11 9 9 17 18 17 18 16 8 7 10 7 20 24 23 24 21 21 21 21 21
2 5 5 4 5 6 4 1 6 3 3 3 5 5 11 9 17 3 15 15 13 7 6 3 9 16 15 22 19 17 15 14 10 13 4 12 20 23 18 19 11 16 20 21 22
6 6 3 6 6 7 6 4 5 2 8 6 6 11 11 13 13 18 19 15 7 5 7 8 11 14 16 22 14 18 10 6 13 9 4 15 18 17 16 19 13 16 20 20 22
3 3 6 3 4 7 2 5 4 6 6 5 9 12 13 12 17 21 19 17 15 15 13 13 11 13 14 19 18 10 6 8 12 9 1 9 18 19 21 19 10 15 18 18 19
Wind_Direction
7 7 7 2 349 340 334 330 327 328 333 332 331 327 322 324 311 215 51 28 339 309 293 258 212 298 235 229 261 263 256 256 267 278 293 283 282 247 282 265 274 271 268 281 304
3 360 359 359 354 343 332 327 321 322 326 325 325 324 322 327 291 69 100 256 292 293 327 1 356 283 221 225 222 259 259 296 11 333 301 295 285 288 276 270 264 263 267 262 265
0 357 354 350 344 339 329 320 314 314 317 319 319 321 321 317 270 79 163 216 266 283 306 279 281 285 251 267 120 295 272 1 307 299 303 288 281 279 274 265 266 270 272 279 280
0 354 348 343 336 331 325 317 308 304 307 311 312 314 316 273 29 81 161 207 256 278 311 340 321 276 273 268 217 274 267 285 295 298 284 282 289 282 276 279 284 283 284 283 279
359 352 343 336 329 321 315 312 306 298 300 303 305 310 287 220 48 122 158 199 257 295 324 332 324 329 287 300 301 260 261 283 275 273 275 279 270 276 274 278 278 272 268 263 265
354 350 339 329 321 313 307 303 299 293 292 295 299 306 254 282 2 136 236 257 254 290 327 306 330 340 281 284 284 310 296 291 280 275 274 274 279 278 273 270 263 257 259 263 264
356 347 339 327 318 310 301 290 284 278 278 284 292 290 278 30 320 301 251 268 299 301 291 315 321 288 309 287 279 293 281 270 256 249 271 268 272 256 258 270 266 271 263 257 258
355 348 339 327 318 312 306 293 274 268 268 267 277 272 295 45 332 296 328 274 224 262 276 291 305 286 269 279 280 252 254 268 122 266 280 304 283 283 280 297 275 256 251 260 256
354 348 338 331 317 308 303 292 264 261 248 264 253 228 248 139 353 327 270 317 313 289 232 259 270 275 284 253 272 229 268 305 308 307 297 266 282 280 272 270 261 259 257 258 257
351 348 339 327 319 302 290 269 255 270 223 245 259 246 166 344 341 308 328 303 288 296 270 213 243 251 243 250 308 322 307 304 299 304 298 288 282 291 285 279 279 275 272 266 258
350 345 339 327 316 295 288 215 217 199 224 325 9 311 322 346 322 307 342 301 265 258 256 289 285 265 356 319 302 294 285 291 287 302 297 302 297 293 288 282 278 277 277 275 276
346 342 338 329 321 309 270 339 22 320 297 191 273 258 306 282 313 330 340 315 312 288 291 246 232 7 326 296 292 288 290 297 316 328 310 295 289 296 291 316 304 293 297 290 285
343 338 337 332 319 273 300 13 325 322 263 162 289 293 317 311 339 341 342 320 300 290 299 301 293 11 300 300 300 299 301 331 317 313 294 294 305 330 326 280 282 272 265 279 275
339 337 334 327 291 341 307 347 289 324 270 133 189 95 299 320 203 344 1 315 296 310 319 279 33 294 300 295 311 303 340 319 307 307 307 319 305 300 305 308 1 318 323 326 329
336 334 331 288 313 326 351 323 314 217 271 79 94 12 297 24 326 111 360 309 298 310 283 285 320 318 298 341 323 301 317 297 298 295 318 313 305 315 346 356 351 339 336 326 313
332 331 332 205 233 357 322 128 223 236 196 121 296 334 319 16 359 305 293 237 330 279 256 273 279 275 332 304 279 311 286 316 292 251 282 267 324 315 7 350 337 333 322 313 305
328 321 308 309 331 337 314 234 251 244 115 44 335 329 327 347 325 338 331 4 6 335 352 298 162 134 261 315 318 303 360 323 321 325 303 343 318 84 19 355 341 328 320 313 305
322 313 189 272 320 308 250 250 265 80 19 356 324 306 274 344 333 319 321 325 33 349 310 348 216 31 358 323 316 306 31 2 296 316 310 300 280 34 29 1 339 327 317 320 317
313 290 239 85 348 266 262 259 354 27 2 333 307 312 354 2 335 330 345 13 1 6 352 321 283 340 274 317 306 344 353 339 251 262 265 254 308 167 348 345 341 335 326 319 317
315 289 91 347 80 247 256 271 11 33 335 319 311 335 326 343 328 332 357 76 346 343 349 339 300 292 334 289 186 294 18 307 74 302 297 327 317 0 343 346 343 333 326 324 319
255 277 54 332 228 240 270 35 15 72 358 325 334 314 324 334 329 325 346 26 334 340 323 312 292 294 289 268 280 160 331 308 269 238 287 305 322 22 12 352 343 322 318 327 323
284 277 25 320 252 307 346 16 12 339 266 300 287 297 325 335 322 315 332 344 4 323 325 2 303 301 289 298 89 328 322 340 313 284 236 261 283 360 8 360 327 322 326 329 324
311 321 48 302 293 87 96 188 322 329 331 307 300 300 317 312 310 318 329 344 338 338 325 316 267 316 320 104 40 325 327 317 299 297 280 326 291 323 2 344 338 343 333 328 334
287 294 112 89 49 318 346 115 289 108 284 298 293 289 300 319 292 287 294 334 277 302 57 267 280 250 277 298 304 294 303 289 325 326 311 308 308 332 360 343 334 345 336 331 337
310 66 1 336 76 331 281 334 299 338 247 294 239 255 332 311 318 237 336 326 323 99 208 241 268 299 305 290 290 281 277 300 334 320 350 305 313 358 351 332 343 341 335 340 344
323 336 348 279 298 278 142 174 301 340 295 282 264 327 312 296 305 312 321 316 314 295 302 288 292 295 302 288 274 281 288 3 306 347 309 331 332 349 355 341 354 350 340 347 342
38 192 272 159 233 265 41 346 315 314 285 269 311 307 300 327 322 301 293 286 273 279 284 287 289 298 306 311 307 294 42 327 339 334 282 325 327 335 352 345 349 356 339 345 342